Hickory, NC

2:08 AM EDT on May 29, 2017 (GMT -0400)
Hickory Regional

Weather History for KHKY - October, 2014

Change the Weather History Date:

Tuesday, October 7, 2014

  Actual Average Record
Temperature  
Mean Temperature 64 °F -  
Max Temperature 73 °F 71 °F 92 °F (1951)
Min Temperature 55 °F 49 °F 36 °F (1964)
Degree Days  
Heating Degree Days 2    
Growing Degree Days 14 (Base 50)    
Moisture  
Dew Point 54 °F    
Average Humidity 72    
Maximum Humidity 93    
Minimum Humidity 57    
Precipitation  
Precipitation 0.04 in - - ()
Sea Level Pressure  
Sea Level Pressure 30.00 in    
Wind  
Wind Speed 5 mph (SSW)    
Max Wind Speed 12 mph    
Max Gust Speed 22 mph    
Visibility 10 miles    
Events Rain    
Averages and records for this station are not official NWS values.
T = Trace of Precipitation, MM = Missing Value Source: NWS Daily Summary

Daily Weather History Graph

Daily Weather History Graph

Search for Another Location

Airport or City:

Trip Planner

Search our weather history database for the weather conditions in past years. The results will help you decide how hot, cold, wet, or windy it might be!

Date:

Astronomy

Oct. 07, 2014 Rise Set
Actual Time 7:25 AM EDT 7:00 PM EDT
Civil Twilight 6:59 AM EDT 7:26 PM EDT
Nautical Twilight 6:30 AM EDT 7:55 PM EDT
Astronomical Twilight 6:00 AM EDT 8:25 PM EDT
Moon 6:34 PM EDT (10/7) 6:22 AM EDT (10/7)
Length of Visible Light 12h 26m
Length of Day
11h 35m
Waxing Gibbous, 99% of the Moon is Illuminated
Oct 7
Waxing Gibbous
Oct 8
Full
Oct 15
Last Quarter
Oct 23
New
Oct 30
First Quarter

Hourly Weather History & Observations

Time (EDT) Temp. Dew Point Humidity Pressure Visibility Wind Dir Wind Speed Gust Speed Precip Events Conditions
12:53 AM 59.0 °F 53.1 °F 81% 30.00 in 10.0 mi South 4.6 mph - N/A   Clear
1:53 AM 57.9 °F 52.0 °F 81% 30.01 in 10.0 mi Calm Calm - N/A   Mostly Cloudy
2:53 AM 57.0 °F 50.0 °F 77% 30.01 in 10.0 mi South 3.5 mph - N/A   Scattered Clouds
3:53 AM 57.0 °F 48.0 °F 72% 30.02 in 10.0 mi South 4.6 mph - N/A   Scattered Clouds
4:53 AM 57.0 °F 48.0 °F 72% 30.02 in 10.0 mi SSW 5.8 mph - N/A   Clear
5:53 AM 57.0 °F 48.0 °F 72% 30.00 in 10.0 mi South 4.6 mph - 0.00 in   Overcast
6:53 AM 55.9 °F 50.0 °F 80% 30.01 in 10.0 mi Calm Calm - 0.00 in Rain Light Rain
7:53 AM 55.0 °F 50.0 °F 83% 30.07 in 8.0 mi West 4.6 mph - 0.00 in Rain Light Rain
8:53 AM 55.0 °F 53.1 °F 93% 30.07 in 10.0 mi SE 3.5 mph - 0.02 in Rain Light Rain
9:53 AM 55.9 °F 54.0 °F 93% 30.06 in 6.0 mi Variable 3.5 mph - 0.02 in Rain Light Rain
10:53 AM 60.1 °F 55.0 °F 83% 30.07 in 10.0 mi Calm Calm - 0.00 in   Partly Cloudy
11:53 AM 63.0 °F 55.0 °F 75% 30.04 in 10.0 mi Variable 5.8 mph - N/A   Clear
12:53 PM 69.1 °F 55.9 °F 63% 30.01 in 10.0 mi SSW 9.2 mph - N/A   Clear
1:53 PM 72.0 °F 55.9 °F 57% 29.98 in 10.0 mi SW 11.5 mph - N/A   Clear
2:53 PM 71.1 °F 55.9 °F 59% 29.96 in 10.0 mi SW 10.4 mph - N/A   Scattered Clouds
3:53 PM 71.1 °F 55.9 °F 59% 29.96 in 10.0 mi SSW 6.9 mph - N/A   Mostly Cloudy
4:53 PM 69.1 °F 57.9 °F 68% 29.95 in 10.0 mi SW 6.9 mph - 0.00 in   Overcast
5:53 PM 69.1 °F 59.0 °F 70% 29.94 in 10.0 mi SW 5.8 mph - N/A   Partly Cloudy
6:53 PM 68.0 °F 59.0 °F 73% 29.94 in 10.0 mi SSW 5.8 mph - N/A   Mostly Cloudy
7:53 PM 68.0 °F 55.0 °F 63% 29.94 in 10.0 mi SSW 10.4 mph - N/A   Mostly Cloudy
8:53 PM 66.0 °F 54.0 °F 65% 29.96 in 10.0 mi SW 8.1 mph - N/A   Overcast
9:53 PM 66.0 °F 54.0 °F 65% 29.97 in 10.0 mi SSW 8.1 mph - N/A   Overcast
10:53 PM 64.9 °F 52.0 °F 63% 29.96 in 10.0 mi SSW 10.4 mph - N/A   Partly Cloudy
11:53 PM 66.9 °F 54.0 °F 63% 29.97 in 10.0 mi SSW 10.4 mph 21.9 mph N/A   Mostly Cloudy